Regional Weather Roundup
Issued by NWS Cleveland, OH

Home | Current Version | Previous Version | Graphics & Text | Print | Product List | Glossary On
Versions: 1 2 3 4 5 6 7 8 9 10 11 12 13 14 15 16 17 18 19 20 21 22 23 24 25 26 27 28 29 30 31 32 33 34 35 36 37 38 39 40 41 42 43 44 45 46 47 48 49 50
000
ASUS41 KCLE 220512
RWRCLE
OHIO REGIONAL WEATHER ROUNDUP
NATIONAL WEATHER SERVICE WILMINGTON, OH
100 AM EDT SAT JUL 22 2017

NOTE: "FAIR" INDICATES FEW OR NO CLOUDS BELOW 12,000 FEET WITH NO
SIGNIFICANT WEATHER AND/OR OBSTRUCTIONS TO VISIBILITY.

OHZ001>008-015>018-024>027-034-035-043-044-220600-
   NORTHWEST OHIO

CITY           SKY/WX    TMP DP  RH WIND       PRES   REMARKS
DEFIANCE       FAIR     N/A N/A N/A SW5       29.93F
FINDLAY        FAIR      74  70  87 S5        29.95S
TOLEDO EXPRESS FAIR      75  71  87 SE5       29.93S
TOLEDO EXEC    FAIR      77  71  82 SE6       29.95S
LIMA           FAIR      73  71  93 SE5       29.96F
$$

OHZ009>014-019>023-028>033-038-089-220600-
   NORTHEAST OHIO

CITY           SKY/WX    TMP DP  RH WIND       PRES   REMARKS
CLE-HOPKINS    MOCLDY    75  69  81 SE5       29.99R
CLE-LAKEFRONT  FAIR      78  66  66 SE7       29.96R
CUY CO. ARPT   NOT AVBL
LORAIN-ELYRIA  FAIR      72  66  81 SE3       29.98S
ASHTABULA      FAIR      68  67  96 CALM      30.00R
AKRON-CANTON   CLOUDY    77  70  79 SE6       30.00S
WOOSTER        FAIR      73  71  93 CALM      30.00S
MANSFIELD      FAIR      75  72  90 SE6       30.00S
YOUNGSTOWN     MOCLDY    68  66  93 CALM      30.01R
$$

OHZ042-051>053-060>062-070>072-077>081-220600-
  SOUTHWEST OHIO

CITY           SKY/WX    TMP DP  RH WIND       PRES   REMARKS
CINC-COVINGTON MOCLDY    75  74  96 S3        29.96F
CINC-LUNKEN    FAIR      74  73  97 CALM      29.96F
HAMILTON       FAIR      76  74  93 E3        29.95F
DAYTON         FAIR      73  72  96 SE6       29.97F
WRIGHT-PAT AFB MOCLDY    73  73 100 E5        29.96F
DAYTON GENERAL FAIR      74  72  93 CALM      29.96F
WILMINGTON     FAIR      74  74 100 SE6       29.98S
$$

OHZ036-037-039>041-045>050-054>059-063>069-073>076-082>088-220600-
  CENTRAL AND SOUTHEAST OHIO

CITY           SKY/WX    TMP DP  RH WIND       PRES   REMARKS
COLUMBUS       FAIR      75  74  96 S3        29.98S
OSU AIRPORT    FAIR      74  74 100 CALM      29.98S
BOLTON FIELD   FAIR      71  71 100 CALM      29.99F
RICKENBACK AFB FAIR      72  72 100 S6        29.98S
NEWARK         FAIR      71  70  96 CALM      29.98S FOG
MARION         FAIR      74  71  91 S7        29.98S
LANCASTER      FAIR      72  71  97 CALM      29.99F
ZANESVILLE     FAIR      74  72  93 S6        29.99S
NEW PHILLY     FAIR      74  74 100 SE5       29.99S FOG
$$




USA.gov is the U.S. government's official web portal to all federal, state and local government web resources and services.